Guayas — HCEG — position and weather

sailwx.info

Track history (hours):
 
Tides and Currents Weather Stations Pressure Air Temp Water Temp Dewpoint Dewpoint Depression Visibility Wind Speed Wind Dir Waves Ship Positions

Guayas (Ecuador)

Ecuadorian Navy training vessel.

Last reported at 2017-Aug-22 22:30 UTC. Time now 2017-Aug-22 22:33 UTC.
Position N 09°23' W 080°04'.

; draft 4.8 m.

MMSI: 735059037.

Date/timePositionNaut miles runAvg speedWind from/ knotsBaromVisibWave heightAir tempDewpointWater temp
2017-Aug-22 22:30N 09°23' W 080°04'6 0.4
2017-Aug-22 07:13N 09°23' W 080°09'0 0.1
2017-Aug-22 06:53N 09°23' W 080°09'2 0.6
2017-Aug-22 04:02N 09°23' W 080°08'1 1.7
2017-Aug-22 03:39N 09°24' W 080°07'1 1.9
2017-Aug-22 03:20N 09°24' W 080°07'1 1.8
2017-Aug-22 03:00N 09°24' W 080°06'1 1.6
2017-Aug-22 02:27N 09°25' W 080°06'1 1.4
2017-Aug-22 01:58N 09°25' W 080°05'8 0.3
2017-Aug-20 22:33N 09°21' W 080°11'0 6.9
2017-Aug-20 22:30N 09°21' W 080°11'4 7.1
2017-Aug-20 21:59N 09°22' W 080°08'3 7.0
2017-Aug-20 21:30N 09°23' W 080°04'3 6.7
2017-Aug-20 21:00N 09°27' W 080°03'4 7.3
2017-Aug-20 20:30N 09°30' W 080°03'  
Track history (hours):
 
Tides and Currents Weather Stations Pressure Air Temp Water Temp Dewpoint Dewpoint Depression Visibility Wind Speed Wind Dir Waves Ship Positions

Guayas (Ecuador)

Ecuadorian Navy training vessel.

Last reported at 2017-Aug-22 22:30 UTC. Time now 2017-Aug-22 22:33 UTC.
Position N 09°23' W 080°04'.

; draft 4.8 m.

MMSI: 735059037.

Date/timePositionNaut miles runAvg speedWind from/ knotsBaromVisibWave heightAir tempDewpointWater temp
2017-Aug-22 22:30N 09°23' W 080°04'6 0.4
2017-Aug-22 07:13N 09°23' W 080°09'0 0.1
2017-Aug-22 06:53N 09°23' W 080°09'2 0.6
2017-Aug-22 04:02N 09°23' W 080°08'1 1.7
2017-Aug-22 03:39N 09°24' W 080°07'1 1.9
2017-Aug-22 03:20N 09°24' W 080°07'1 1.8
2017-Aug-22 03:00N 09°24' W 080°06'1 1.6
2017-Aug-22 02:27N 09°25' W 080°06'1 1.4
2017-Aug-22 01:58N 09°25' W 080°05'8 0.3
2017-Aug-20 22:33N 09°21' W 080°11'0 6.9
2017-Aug-20 22:30N 09°21' W 080°11'4 7.1
2017-Aug-20 21:59N 09°22' W 080°08'3 7.0
2017-Aug-20 21:30N 09°23' W 080°04'3 6.7
2017-Aug-20 21:00N 09°27' W 080°03'4 7.3
2017-Aug-20 20:30N 09°30' W 080°03'  

Dump ship's entire track history